Погода в Твентеранде

Нидерланды     52°26′41″N   6°35′39″E
темп.,
°C
ветер,
м/с
пор.,
м/с
влажн.,
%
обл.,
%
осадки,
мм/ч
давл.,
гПа
погр.,
м
17 апреля, сб
сб1723:00+5ссв4106989 0.0 1028283
02:00+3ссв397585 0.0 1028211
05:00+2с36815 0.0 1027110
08:00+4с38855 0.0 1027213
11:00+9ссв67487 0.0 10261119
14:00+12ссв56465 0.0 10251461
17:00+12с66497 0.0 10241386
20:00+8с486315 0.0 1024272
18 апреля, вс
вс1823:00+4с35785 0.0 102493
02:00+4с228210 0.0 102427
05:00+5с2482100 0.0 1023104
08:00+6с2484100 0.0 1023114
11:00+11св336697 0.0 1023546
14:00+14с335753 0.1 10221291
17:00+14ссв346687 1.1 1021830
20:00+11с588176 1.8 1021237
19 апреля, пн
пн1923:00+7с3794100 0.1 1022167
02:00+6с369499 0.1 1021132
05:00+7с4897100 2.7 1019413
08:00+8св61193100 2.9 1019649
11:00+9всв589296 0.2 1020578
14:00+11вюв567750 0.8 1019941
17:00+12юв346898 0.2 10191016
20:00+11ююз2375100 0.3 101982
20 апреля, вт
вт2023:00+8зюз22889 0.0 101913
02:00+6зсз11909 0.0 101910
05:00+6з01905 0.0 101810
08:00+7з11855 0.0 101855
11:00+13зюз11695 0.0 1018620
14:00+15зюз225928 0.6 10171244
17:00+15сз446232 1.3 10161148
20:00+12ссз488223 1.9 1016271
21 апреля, ср
ср2123:00+8ссз48935 0.1 1018160
02:00+6ссз368746 0.1 1018114
05:00+6ссз3792100 0.0 1018147
08:00+8ссз599196 0.0 1019502
11:00+8с577792 0.1 1021979
14:00+11ссз77485 0.1 10211670
17:00+10ссз89495 0.0 10221553
20:00+7ссз69665 0.0 1023926